Back to catalog

NAXING-2

AliveSciencePO
NORAD 40905·PAYLOAD·🇨🇳 China
This satellite name has not been confirmed by official sources yet.

Launched Sep 19, 2015 from Taiyuan Satellite Launch Center

Loading…

Next Passes (next 24 hours)

TLE

FreshSource: Space-Track

Epoch: Sep 14, 2026, 14:03 UTC

1 40905U 15049G   26257.58608100  .00048730  00000-0  33773-3 0  9995
2 40905  97.4439 307.5017 0003524 210.8067 149.2991 15.74343035610475

Track NAXING-2 in real time with AllMySat

Download on the App Store